Weather in Tamarindo

Costa Rica     10°18′53″N   85°48′55″W
temp.,
°C
wind,
m/s
gust,
m/s
humid.,
%
clouds,
%
prec.,
mm/h
press.,
hPa
HPBL,
m
27 january, wed
wed2700:00+22e347946 0.0 1010126
03:00+21ene2387100 0.0 100957
06:00+21e338784 0.0 101183
09:00+29ene585567 0.0 1012750
12:00+33e454071 0.0 10101798
15:00+31sse3750100 0.0 10081257
18:00+26e3866100 0.0 1009301
21:00+25ene5146985 0.0 1011730
28 january, thu
thu2800:00+25ne6147362 0.0 1011844
03:00+23ne5148028 0.0 1010650
06:00+24ne6137537 0.0 1011793
09:00+29ne1117530 0.0 10131430
12:00+33ene1015430 0.0 10111906
15:00+32ene1115471 0.0 10091727
18:00+27ene917571 0.0 10101223
21:00+24ne917660 0.0 10121071
29 january, fri
fri2900:00+24ne917710 0.0 10111105
03:00+23ne615760 0.0 1009919
06:00+22ne3128631 0.0 1010694
09:00+28ne101653100 0.0 10121484
12:00+32ene111641100 0.0 10101939
15:00+32ene11154479 0.0 10071838
18:00+27ene9165889 0.0 10081201
21:00+25ne8177125 0.0 10101211
30 january, sat
sat3000:00+24ne8167232 0.0 10101148
03:00+23ne6157716 0.0 10081119
06:00+24ne8157322 0.0 10091052
09:00+29ene11165488 0.0 10111512
12:00+32ene12164683 0.0 10091748
15:00+31ene11134783 0.0 10061353
18:00+27ne7146082 0.0 1007872
21:00+25ene71570100 0.0 1009681
31 january, sun
sun3100:00+23ene4117887 0.0 1009420
03:00+22e378367 0.0 1008221
06:00+21e238784 0.0 101091
09:00+29ene6105276 0.0 10111239
12:00+33ene473855 0.0 10092016
15:00+30s255169 0.0 10071242
18:00+26wsw237142 0.0 1008122
21:00+23e11842 0.0 101125